Helicity
13 -3 -9 -5 0 22 16 60 40 -9 -24 -32 -22 -17 -26 -34 -27 -11 -46 -70 -43 -45 -50 -21 -16 -23 -14 -6 -6 1 3 6 9 15 17 10 1 3 1 4 4 12 10 5 11 17 5 -7 -9
0 10 5 8 5 11 71 68 -18 0 31 75 21 28 -19 -33 -59 13 -9 -30 -11 -32 -51 -41 -30 -21 -12 -3 0 4 8 8 15 16 15 12 7 8 3 11 4 1 3 9 14 11 6 -13 -17
25 5 5 21 16 24 -7 29 42 76 82 75 38 53 -28 -44 64 62 -33 0 -1 -34 -42 -30 -15 -14 -8 -1 2 6 9 8 9 10 9 13 13 4 5 3 4 9 6 8 10 8 -5 -21 -19
12 -1 2 4 57 31 19 3 26 94 46 62 109 81 -19 47 42 -13 11 16 1 -30 -35 -17 -5 -5 -5 0 6 13 12 10 7 12 19 15 15 13 15 12 11 18 11 7 4 -3 -22 -22 -20
4 -2 -5 18 -2 22 -3 -56 28 42 47 30 8 21 47 -42 -16 25 32 6 14 -27 -37 -26 -12 -7 -1 4 9 10 11 7 12 17 24 24 14 3 2 5 4 6 11 12 8 -3 -9 -15 -14
-18 -10 -13 -1 -26 17 -21 -38 8 26 116 82 117 175 53 -41 30 5 19 22 7 2 -38 -26 -6 -1 -2 -3 1 10 8 9 12 19 25 25 20 5 7 10 15 10 15 18 13 1 -13 -16 -23
-9 2 3 -4 -22 -41 5 18 23 126 88 29 80 216 37 -17 -23 -10 14 13 3 8 -12 -25 -23 -11 -5 -4 5 6 4 4 12 17 23 31 27 21 21 21 22 22 19 18 17 5 -2 -21 -22
15 8 -12 52 1 -16 67 91 21 135 50 79 89 138 96 -25 -43 33 35 6 11 10 1 -27 -34 -24 -8 2 3 6 7 7 11 18 23 34 33 24 27 32 27 26 18 16 6 -4 -10 -10 3
6 52 -13 1 6 -11 -16 124 55 107 113 18 20 80 122 -13 7 68 61 19 17 -13 -1 -25 -31 -25 -7 1 0 2 8 4 10 9 24 12 17 5 11 26 25 26 23 15 0 -23 3 18 9
8 38 -12 1 -11 -15 17 53 106 36 36 77 44 58 76 75 74 121 98 36 33 -15 -29 -31 -37 -30 -19 -3 -19 -19 -11 -7 5 12 9 15 24 11 1 8 7 9 18 11 -4 -9 2 14 40
3 44 -8 25 85 -5 -3 -2 57 39 27 74 142 82 133 114 127 92 54 55 -28 -33 -40 -48 -47 -35 -33 -34 -44 -56 -57 -49 -22 5 19 7 -4 -14 -28 -25 1 20 4 17 3 8 21 20 32
39 103 217 10 55 31 39 15 96 56 24 36 178 143 171 125 130 87 47 4 7 -28 -40 -54 -54 -63 -48 -59 -72 -72 -56 -28 -14 -12 -14 -6 -30 -29 -33 -16 -8 2 17 43 38 31 26 23 25
59 169 138 36 162 203 122 54 2 -1 26 38 19 133 163 121 82 66 14 30 -1 -40 -37 -73 -111 -66 -64 -56 -65 -57 -39 -14 -24 -17 1 5 -15 -20 -19 0 -14 -3 20 42 52 39 38 61 45
91 113 88 39 290 164 84 72 62 18 15 107 13 91 98 84 98 36 18 57 23 -16 -34 -82 -108 -69 -55 -42 -22 -25 -20 -1 13 0 15 14 1 -8 -10 -4 -17 5 33 35 41 33 38 58 56
109 125 54 76 231 137 213 10 36 44 62 75 -10 76 58 22 9 33 28 125 97 48 13 -35 -48 -39 -21 -21 -3 -9 -8 23 9 3 -4 20 -3 2 1 -22 -15 -2 6 30 31 39 23 23 7
85 70 86 17 83 57 54 13 83 58 58 26 22 49 54 -49 -83 -39 128 176 127 141 107 43 35 17 -22 -31 -21 -13 -8 40 0 -11 -5 12 11 16 -3 -4 2 3 -7 8 8 2 -5 3 2
126 30 33 10 24 68 50 78 101 26 136 105 73 4 45 -64 -97 -52 136 246 183 196 207 124 77 46 62 95 -4 -30 -19 -18 -20 -5 -11 6 6 11 26 -1 -9 1 -6 -12 -16 -15 -20 -25 1
69 62 32 37 33 54 150 134 212 71 70 89 204 -7 -33 -46 -106 -65 95 203 196 210 264 203 88 44 78 111 31 -31 -36 -42 -28 -21 -23 12 3 6 -1 -2 -6 -12 -1 -26 1 -5 -26 -6 -5
71 63 30 46 108 41 164 340 285 94 37 104 131 21 -70 12 -93 -81 79 214 215 204 251 217 109 12 23 58 25 -15 -35 -20 -31 -34 -1 13 -6 4 25 13 0 -4 1 11 -6 23 5 -13 6
69 102 113 78 26 30 89 197 233 104 34 112 162 53 15 -48 -66 -72 75 161 293 264 225 188 109 33 -6 28 -29 -11 11 -25 -5 -21 -1 10 4 2 7 4 11 4 -12 6 -1 -2 17 34 9
80 96 140 165 105 36 93 194 192 124 86 93 173 113 57 -60 -24 -76 65 197 277 277 252 192 109 42 11 -1 -32 -8 1 -67 -31 -19 -6 5 7 3 1 3 -4 16 8 -9 -20 -21 -10 -9 1
100 54 162 151 41 105 26 88 59 116 134 103 131 190 173 -138 -85 3 106 211 228 291 276 260 170 81 -6 -16 -17 -21 -40 -38 -32 -24 -27 -4 -9 8 9 6 -2 9 12 14 -25 -49 -35 -29 -5
163 79 140 94 51 46 80 100 85 289 242 206 183 60 88 -46 -53 -28 180 219 266 303 314 291 225 138 16 -19 -47 -37 -53 -46 -43 -30 -24 -20 -11 12 11 14 15 21 11 3 0 0 -33 -33 -11
58 142 72 64 48 86 25 82 75 46 208 270 256 168 225 -42 17 10 113 284 338 321 335 320 240 163 125 -12 -53 -55 -56 -41 -48 -12 -24 -34 -29 -12 -1 1 11 18 15 10 -3 -18 -5 -32 -48
73 163 179 137 137 46 15 71 56 6 45 284 449 273 150 47 2 -5 134 360 346 433 394 338 254 176 160 28 -40 -57 -48 -61 -35 5 11 -9 -29 -5 8 4 -4 4 14 19 21 1 -20 -26 -43
84 92 146 124 88 89 40 47 39 39 15 146 291 284 184 99 245 154 178 354 412 438 428 385 293 206 168 129 1 -45 -60 -70 -42 -23 5 24 16 18 13 46 11 14 10 12 22 13 -13 -37 -36
171 140 61 87 98 135 118 117 74 0 87 63 217 233 293 308 346 210 264 303 371 378 435 421 360 254 219 146 71 -19 -54 -81 -77 -14 8 13 39 21 -3 41 45 23 22 20 21 13 17 -6 -34
211 133 179 160 61 79 126 105 70 31 19 36 138 143 255 315 450 347 405 368 363 318 339 286 398 344 272 218 106 58 -27 -57 -75 -49 -7 -14 -5 6 14 37 50 33 23 24 17 10 -6 0 -12
277 261 256 167 136 104 109 92 -103 -89 -129 -58 14 131 227 200 311 368 455 383 377 286 264 324 289 335 303 241 210 104 31 -37 -51 -54 -32 -13 -5 -17 5 50 90 63 46 29 11 2 -7 -11 -14
29 106 171 304 355 244 128 147 28 -42 -60 -8 -30 23 135 148 258 201 230 271 294 389 353 273 267 281 307 310 268 126 116 40 -33 -67 -68 -48 -24 25 33 50 93 90 57 44 26 13 -2 -12 -16
Wind_Speed
35 35 35 27 20 25 30 32 46 62 52 48 59 49 46 45 45 41 63 63 64 66 67 64 63 61 56 52 52 52 54 52 52 52 51 49 50 50 49 48 45 47 45 45 43 43 45 51 49
37 37 32 22 24 33 15 28 60 44 36 32 32 40 44 47 41 56 64 63 63 65 64 63 60 59 57 57 58 58 57 53 50 49 47 48 47 47 46 46 44 41 43 46 45 44 43 52 54
34 34 29 27 27 32 41 48 53 42 44 45 40 21 42 42 45 65 65 64 62 63 61 61 62 61 60 58 58 57 55 50 46 50 49 48 47 47 45 41 44 47 49 51 51 48 44 48 53
26 30 32 28 26 32 48 55 54 35 22 19 33 28 41 39 59 60 68 63 61 63 60 62 63 61 58 59 58 56 55 53 52 53 52 51 50 49 45 52 48 54 53 55 55 55 56 58 60
30 29 29 28 21 35 52 54 56 39 12 37 35 38 48 27 52 69 66 60 60 62 61 61 62 60 59 59 59 58 57 57 57 56 55 53 52 53 51 50 45 47 53 55 57 58 60 62 61
25 28 30 34 24 37 53 53 47 35 28 25 27 35 53 55 61 64 61 59 58 60 59 60 60 59 58 59 61 60 60 59 58 56 54 53 54 53 52 50 49 47 51 54 57 60 63 63 61
24 29 31 30 25 27 44 44 38 41 38 23 44 45 55 61 60 61 61 58 56 55 55 58 61 59 61 59 61 61 61 60 58 57 55 54 55 56 56 56 52 51 50 53 55 59 60 61 59
24 28 33 32 20 28 40 42 40 35 34 39 41 55 60 67 62 59 61 56 54 53 53 57 57 62 63 62 63 62 62 62 60 57 56 56 56 58 58 54 52 49 48 53 55 52 55 58 55
28 30 31 36 39 19 14 32 48 20 28 8 41 46 65 71 56 59 57 52 49 50 53 56 56 63 64 63 61 62 63 63 60 57 58 59 58 60 60 57 57 55 52 52 57 59 50 48 53
20 25 29 35 39 32 23 24 30 25 40 13 15 50 64 68 62 59 59 56 51 53 56 56 58 62 64 61 63 62 62 62 58 56 57 56 56 57 58 58 58 56 54 52 55 56 51 45 42
25 35 22 30 35 34 21 26 35 39 50 44 45 60 64 67 62 60 59 57 57 57 57 57 60 62 64 64 64 63 62 60 57 53 52 51 55 56 56 57 54 52 55 50 50 46 42 42 40
42 57 51 48 33 35 28 36 33 46 44 53 51 63 63 65 57 60 62 56 54 57 60 58 60 63 65 65 62 61 59 57 54 53 51 51 51 52 53 53 52 51 45 45 41 44 43 38 42
51 59 56 55 24 25 30 30 41 42 47 33 57 59 62 62 56 60 64 56 55 58 60 60 61 63 66 64 61 59 56 55 54 50 44 44 46 44 46 46 48 47 44 42 43 43 39 29 29
43 52 59 59 6 16 32 27 28 33 41 37 53 55 59 59 52 65 67 54 57 58 59 60 61 61 62 63 60 57 54 51 53 46 40 42 41 43 45 48 48 48 45 43 43 41 39 31 32
58 60 58 19 4 22 21 28 23 16 6 26 45 50 54 58 61 62 68 53 58 57 56 60 59 51 59 59 58 56 53 46 48 42 44 41 42 45 48 48 48 46 45 44 44 43 41 37 45
50 48 42 23 6 15 20 33 26 30 13 12 40 50 57 67 69 68 63 52 56 54 51 53 47 50 55 58 53 53 47 50 46 42 44 44 44 44 46 47 47 48 47 45 43 50 47 42 48
36 44 47 47 14 22 34 25 13 26 33 20 37 55 53 74 74 67 48 50 55 53 48 47 49 43 36 4 34 49 51 48 46 45 44 46 46 45 44 47 46 47 47 48 49 47 50 49 46
45 41 41 43 33 27 30 31 11 10 18 30 43 56 60 76 74 66 43 50 53 54 46 43 48 46 35 24 32 44 50 51 52 45 44 45 45 47 50 46 47 46 45 49 49 48 50 48 49
53 52 56 59 55 55 7 12 20 10 4 2 23 25 66 72 76 61 46 47 50 51 45 44 45 48 44 42 32 23 51 53 51 44 46 47 43 50 50 50 46 45 46 50 50 47 50 49 45
57 60 61 57 42 44 30 13 16 12 13 12 32 28 63 72 80 72 52 54 46 52 47 48 49 42 52 51 55 50 35 52 50 49 49 49 51 50 51 49 48 44 47 50 51 50 49 46 47
60 60 62 58 46 38 26 27 21 30 27 15 15 30 44 73 73 76 63 59 49 48 47 47 49 45 52 54 58 54 50 45 51 53 53 50 52 51 50 50 49 45 48 48 48 49 48 50 44
65 59 61 58 47 51 32 30 24 11 21 11 31 18 19 84 71 57 50 64 59 49 43 40 42 40 61 54 63 56 54 57 59 55 54 53 52 51 49 48 47 46 45 45 45 46 46 50 49
62 64 62 57 54 46 42 47 42 10 15 26 34 52 47 81 72 70 48 65 58 42 41 36 37 38 63 60 66 66 59 59 60 58 53 52 53 49 49 46 46 45 43 43 44 46 47 48 47
65 61 60 53 53 59 41 46 44 22 33 19 21 38 36 82 75 63 47 52 58 47 36 33 40 43 31 72 70 72 68 66 61 58 58 54 55 50 50 47 44 43 43 42 45 43 43 45 46
45 47 55 60 63 66 47 54 49 28 16 11 30 47 48 76 74 61 52 51 53 57 49 38 43 46 36 73 78 77 76 72 66 54 56 60 60 53 50 49 45 42 42 42 41 40 43 44 46
48 47 53 63 65 63 54 60 52 50 60 13 20 27 52 64 25 34 45 43 47 54 56 40 45 50 47 52 80 80 81 80 75 66 59 59 62 57 50 45 44 40 40 41 41 41 43 43 45
48 55 46 57 58 63 55 60 56 35 52 62 33 19 32 24 27 40 35 37 39 43 57 59 43 46 44 62 75 87 84 82 81 73 66 64 62 61 55 44 42 40 39 39 40 41 41 43 46
35 44 57 54 66 72 62 57 49 52 57 54 43 46 32 24 28 30 36 35 32 33 34 58 52 43 37 35 93 94 91 89 86 80 74 70 61 51 50 46 43 41 39 37 39 40 41 40 41
45 43 48 53 51 57 59 56 27 36 46 51 53 45 43 44 29 28 24 31 43 35 32 38 40 41 39 37 40 95 96 94 89 88 83 77 71 60 46 45 40 41 38 35 37 39 39 40 41
29 37 42 58 66 56 55 52 36 42 48 51 52 52 45 47 50 50 25 17 33 42 41 36 40 44 37 57 57 91 94 98 94 93 89 83 79 20 21 23 31 40 36 34 36 35 35 38 40
Wind_Direction
101 94 102 84 18 47 135 156 154 132 119 116 125 121 109 117 128 116 118 123 120 125 133 138 135 130 114 100 95 97 102 98 97 99 91 87 88 82 80 75 69 79 75 81 78 75 79 89 85
102 94 133 63 125 334 283 178 137 114 90 85 74 88 109 129 102 107 116 121 120 123 129 131 123 121 116 112 115 117 118 111 101 95 89 89 87 80 73 72 67 62 68 76 76 80 75 96 101
105 142 344 85 68 15 120 173 106 86 95 100 94 34 119 129 97 119 121 118 117 122 121 123 124 122 120 121 131 133 121 100 88 97 96 92 87 85 74 62 68 72 79 85 90 86 80 88 95
74 206 232 89 121 156 163 138 146 84 48 10 75 50 94 88 119 117 119 116 115 121 119 121 124 124 120 125 126 118 115 106 104 106 104 101 101 97 77 95 77 102 119 110 102 104 106 109 115
249 280 350 53 69 179 164 151 150 96 297 89 90 90 135 82 106 117 117 116 116 120 120 121 124 119 117 118 120 116 119 122 122 117 119 118 118 121 138 140 149 142 127 119 114 112 113 114 122
326 309 359 13 78 175 166 150 156 112 68 58 56 81 135 111 116 118 115 115 115 116 118 120 119 118 116 116 125 126 127 130 125 128 125 125 126 137 144 146 144 143 134 127 123 124 120 119 121
323 331 316 10 72 78 186 199 119 106 93 46 94 93 110 119 120 117 116 114 114 113 114 118 123 118 124 117 130 132 128 130 132 132 130 129 129 135 137 134 138 136 136 131 135 136 132 124 120
322 331 312 304 14 116 212 214 126 101 94 92 92 131 129 131 125 117 116 114 114 114 114 118 119 128 141 141 133 131 125 130 135 136 130 126 129 132 134 139 138 141 142 133 137 148 141 128 130
299 308 331 12 50 196 232 255 194 269 95 269 174 125 130 132 122 120 117 113 112 114 118 121 121 133 145 151 146 131 129 140 140 138 127 120 121 120 125 126 127 129 133 136 132 134 150 147 134
307 308 338 356 31 22 274 271 249 254 120 46 16 115 129 131 129 127 127 124 123 124 126 126 127 134 141 159 145 137 136 140 139 139 123 119 121 120 119 117 114 116 131 134 135 131 143 151 152
294 283 335 356 21 14 345 323 271 245 156 131 122 134 136 137 133 132 131 129 130 129 130 133 133 138 145 152 137 139 140 137 134 138 137 127 117 113 110 114 129 131 119 133 140 149 158 158 160
272 245 223 252 331 348 358 353 291 227 218 169 133 137 138 141 135 137 138 131 128 133 135 135 138 142 155 148 139 139 142 147 142 127 126 99 104 108 104 114 125 125 147 138 165 152 152 158 149
263 255 261 268 322 360 32 26 135 167 210 127 143 138 141 141 137 143 145 136 133 134 136 139 140 144 152 146 147 144 142 150 145 117 97 104 112 104 118 116 123 130 150 157 160 156 162 175 177
276 279 274 283 322 33 23 33 56 132 204 116 139 140 143 144 136 147 151 138 140 137 137 140 144 142 143 148 152 150 146 135 134 115 103 100 100 108 118 123 135 141 147 156 162 164 164 180 171
267 267 278 328 344 309 41 355 48 4 331 115 132 140 145 150 152 151 158 141 144 142 139 143 145 136 144 152 165 149 147 127 131 114 115 102 103 113 123 128 139 144 154 154 157 165 162 173 154
278 281 285 302 320 309 312 310 38 61 83 244 132 145 153 165 171 171 152 143 145 139 139 140 133 135 141 148 137 138 128 134 128 111 117 110 115 112 121 126 140 140 147 143 153 144 154 163 150
283 275 272 271 294 309 284 308 72 104 113 109 136 154 155 175 181 185 145 143 144 141 136 135 135 127 121 240 116 129 138 133 129 124 118 125 127 120 121 128 141 138 134 128 128 143 145 146 150
266 272 277 277 290 317 286 288 160 123 116 126 143 158 163 177 181 174 147 147 146 145 140 137 141 138 127 109 110 127 138 142 143 125 120 121 122 127 135 142 146 149 143 132 141 156 150 145 140
263 266 265 261 270 293 282 243 187 210 293 38 134 148 174 177 187 168 153 153 150 150 146 145 144 147 141 137 126 106 148 146 148 133 134 132 121 143 138 138 147 156 155 165 151 153 153 151 162
258 259 258 270 301 306 317 267 186 204 256 145 145 153 181 182 188 186 160 160 159 155 154 153 154 148 154 151 156 171 121 149 149 147 147 146 142 149 151 150 145 153 152 145 155 155 162 168 166
258 258 255 266 296 316 323 284 265 269 269 285 161 151 169 185 181 184 168 166 163 161 159 158 157 153 156 156 162 184 184 143 154 157 159 153 155 153 149 149 150 144 144 145 147 154 159 165 176
259 261 262 270 288 282 289 279 281 244 273 240 172 173 201 204 181 175 168 171 169 167 163 159 158 157 166 162 169 164 163 166 175 163 162 168 159 154 147 149 151 146 144 140 150 153 157 164 170
261 261 264 270 279 284 276 279 279 257 248 186 178 184 173 190 177 179 171 172 172 172 168 166 162 161 172 170 174 176 170 175 179 172 162 163 163 155 154 144 142 143 142 143 146 143 147 160 168
259 266 268 272 274 267 275 278 277 284 191 199 195 181 176 187 181 177 174 173 172 173 180 174 167 168 171 181 182 184 185 188 182 172 172 167 167 159 159 151 143 142 139 140 143 142 135 145 162
265 266 264 261 258 258 277 280 275 287 310 200 188 188 178 192 188 180 175 174 176 173 175 179 173 172 175 183 191 192 194 199 192 171 172 176 178 169 166 159 151 142 144 140 135 134 142 149 156
265 263 259 258 258 263 276 267 277 288 276 237 193 184 177 185 223 203 180 176 181 177 177 184 180 178 176 178 192 195 198 207 208 197 180 179 182 178 169 156 154 146 145 146 146 146 152 155 160
262 262 269 265 267 266 267 275 283 316 302 277 270 227 197 206 198 188 225 184 186 189 182 181 186 183 182 183 191 202 201 202 208 213 197 188 187 189 174 159 155 151 149 147 147 152 152 159 175
284 281 263 263 260 257 262 266 266 304 306 310 281 257 241 227 194 196 189 213 225 202 217 234 225 190 198 205 212 213 211 213 212 206 211 199 185 174 172 169 164 160 156 152 153 154 157 155 162
282 283 275 268 263 259 259 260 302 321 327 316 291 270 249 236 217 204 218 241 229 232 202 196 201 222 229 205 219 220 217 221 226 218 211 212 218 187 176 173 168 166 161 155 157 159 160 164 165
284 290 292 263 258 264 262 256 315 327 320 320 321 285 264 239 236 240 187 179 212 230 234 200 192 193 213 241 243 226 228 222 227 223 214 211 214 238 185 172 167 169 165 161 162 160 158 165 169